Погода в Автурах

Россия / Чеченская Республика     43°09′47″N   46°00′11″E
темп.,
°C
ветер,
м/с
пор.,
м/с
влажн.,
%
обл.,
%
осадки,
мм/ч
давл.,
гПа
погр.,
м
9 мая, вс
вс900:00+12вюв11883 0.2 101117
03:00+12в2288100 0.2 100918
06:00+13з118699 0.0 100963
09:00+18ссз2269100 0.0 1008459
12:00+22сз23555 0.0 10071052
15:00+24сз5651100 0.0 10061722
18:00+12з91590100 2.0 1014899
21:00+8з81490100 5.8 10201094
10 мая, пн
пн1000:00+7з71290100 1.8 10221040
03:00+8зюз81285100 2.5 1022924
06:00+8зюз61079100 0.5 1023968
09:00+9юз5874100 2.1 1023999
12:00+12зсз574999 0.1 10211598
15:00+15сз444185 0.1 10192081
18:00+13ююз235696 0.0 1019309
21:00+9ю226879 0.0 102163
11 мая, вт
вт1100:00+9зюз1266100 0.0 102062
03:00+8ю117673 0.0 102044
06:00+8всв127510 0.0 1020108
09:00+12всв346026 0.0 10191123
12:00+16всв345299 0.0 10171436
15:00+17всв554866 0.0 10161650
18:00+14всв59645 0.0 1017504
21:00+8вюв23825 0.0 101958
12 мая, ср
ср1200:00+7ююз01875 0.0 101830
03:00+7ююв118978 0.0 101819
06:00+9з01830 0.0 101894
09:00+15всв24635 0.0 1017825
12:00+19всв44510 0.0 10161223
15:00+20всв54530 0.0 10161146
18:00+16всв45690 0.0 1016370
21:00+11вюв22870 0.0 101736
13 мая, чт
чт1300:00+10ююв11870 0.0 101613
03:00+10ююв01880 0.0 101610
06:00+12вюв00825 0.0 101763
09:00+18св33655 0.0 1016510
12:00+22всв45560 0.0 1015835
15:00+24всв56531 0.0 1014975
18:00+19всв46690 0.0 1015330
21:00+14в11861 0.0 101634